STARLINK-5129 (54004 NORAD) Tracking and Keplerian Element Data

This shows tracking and keplerian element data for the satellite.

Feedback or suggestion? Click here.




ElementValue
Catalog54004
NameSTARLINK-5129
Epoch Orbit130
Epoch Day324.91667824
Epoch Year2022
RAAN225.4633
Inclination53.217
Eccentricity9.95E-05
Argument of Perigee93.3176
Mean Anonmoly184.6125
Mean Motion15.49911638
Decay Rate-0.00015732
L11 54004U 22125AS 22324.91667824 -.00015732 00000+0 -26953-3 0 9998
L22 54004 53.2170 225.4633 0000995 93.3176 184.6125 15.49911638 1308



Live tracking and technical data element details for STARLINK-5129 (NORAD 54004). STARLINK-5129 can be tracked NOW for your location showing map with azimuth and elevation plus other details from your city location.







IsCatalogInMostPopularTable: catalog: 54004, numindb: 3
Update: records affected: 1



GetName: 54004 STARLINK-5129

Hit Count: updated at: Fri, 09 Dec 2022 19:00:28 GMT